Regional Weather Roundup
Issued by NWS

Home | Current Version | Previous Version | Text Only | Print | Product List | Glossary On
Versions: 1 2 3 4 5 6 7 8 9 10 11 12 13 14 15 16 17 18 19 20 21 22 23 24 25 26 27
000
ASUS42 KTBW 292316
RWRFL
FLORIDA REGIONAL WEATHER ROUNDUP
NATIONAL WEATHER SERVICE TAMPA BAY RUSKIN FL
700 PM EDT MON AUG 29 2016

NOTE: "FAIR" INDICATES FEW OR NO CLOUDS BELOW 12,000 FEET WITH NO
SIGNIFICANT WEATHER AND/OR OBSTRUCTIONS TO VISIBILITY.

FLZ001>010-012>015-112-114-115-300000-
PANHANDLE FLORIDA

CITY           SKY/WX    TMP DP  RH WIND       PRES   REMARKS
PENSACOLA      MOSUNNY   91  69  48 NE6       29.93S HX  96
PENSACOLA NAS  PTSUNNY   89  73  59 SE5       29.92S HX  97
MILTON NAS     MOSUNNY   89  70  53 NE6       29.94
CRESTVIEW      SUNNY     91  68  46 NE7       29.95S HX  95
DUKE FIELD     MOSUNNY   91  69  48 NE5       29.93S HX  96
VALPARAISO     PTSUNNY   92  69  46 NE8       29.93S HX  97
MARY ESTHER    MOSUNNY   91  68  47 E9        29.91S HX  95
PANAMA CITY    FAIR      83  78  85 MISG      29.91F
TYNDALL AFB    PTSUNNY   88  76  67 SW10      29.92S HX  99
APALACHICOLA   MOSUNNY   90  77  65 E5        29.92F HX 103

STATION/POSITION SKY/WX   TEMP    WIND        PRES    WAVE   SWELL
                          AIR SEA DIR/SP/G            HT/PER HT/PER
                          (F)     (DEG/KT/KT) (MB)    (FT/S) (FT/S)
30.1N   87.6W              86 86  100/  8/  8 1013.4R   3/ 6   3/ 6
29.2N   88.2W              84 86   70/ 16/ 19 1012.6F
28.8N   86.0W              85 85   80/ 16/ 17 1012.5F   5/ 6   2/ 9
PANAMA CITY BEAC           91 87                N/A
TOWER C                    86      60/  8/  9 1013.4F
28.5N   84.5W              86 86   40/ 14/ 16 1012.4R   4/ 5   2/11

$$
FLZ011-016>038-118-127-128-134-139-239-300000-
NORTH FLORIDA

CITY           SKY/WX    TMP DP  RH WIND       PRES   REMARKS
MARIANNA       SUNNY     92  70  48 E7        29.92F HX  97
TALLAHASSEE    PTSUNNY   90  71  53 E7        29.92F HX  96
PERRY          MOSUNNY   86  71  61 E6        29.94S
CROSS CITY     SUNNY     84  73  70 E8        29.95R
LAKE CITY      FAIR      82  73  74 E7        29.97S
GAINESVILLE    PTSUNNY   80  76  87 E3        29.96S
WILLISTON      FAIR      82  73  74 SE14      29.96R
PALATKA        LGT RAIN  75  57  53 SE10      29.98R
MAYPORT NAS    PTSUNNY   83  74  74 E14       29.98R
JACKSONVILLE   PTSUNNY   82  74  76 E10       29.97R
JAX NAS        PTSUNNY   85  76  74 NE22      29.98R THUNDER
FERNANDINA BEA FAIR      88  73  62 E10       29.98R HX  96
ST AUGUSTINE   MOSUNNY   84  74  71 E13       29.99R
PALM COAST     PTCLDY   N/A N/A N/A E6        29.96

STATION/POSITION SKY/WX   TEMP    WIND        PRES    WAVE   SWELL
                          AIR SEA DIR/SP/G            HT/PER HT/PER
                          (F)     (DEG/KT/KT) (MB)    (FT/S) (FT/S)
SHELL POINT                92      80/  4/ 11 1011.8
KEATON BEACH               81      70/ 10/ 12 1013.4R
CEDAR KEY                  81     110/ 12/ 13 1014.0R
FERNANDINA                 87 86                N/A
MAYPORT                    81 85                N/A
31.4N   80.9W              83 85   50/ 16/ 17 1015.0F   3/14   2/14
ST AUGUSTINE               83 85   90/ 11/ 12 1015.8R

$$
FLZ040-043>046-052-053-057-058-063-144-300000-
INTERIOR CENTRAL FLORIDA

CITY           SKY/WX    TMP DP  RH WIND       PRES   REMARKS
OCALA          MOSUNNY   79  72  78 NE9       29.95F
THE VILLAGES     N/A     77  77 100 CALM      29.86R
LEESBURG       LGT RAIN  77  74  90 NE7       29.95R
SANFORD        LGT RAIN  78  75  90 E6        29.95S
ORLANDO EXEC   CLOUDY    76  75  97 E7        29.93F
ORLANDO INTL   CLOUDY    78  74  87 E6        29.93S
KISSIMMEE      CLOUDY    82  76  81 E7        29.94S
WINTER HAVEN   CLOUDY    82  73  74 NE5       29.93F
LAKELAND       MOSUNNY   82  75  78 E7        29.92R
BARTOW         FAIR      82  75  78 NE9       29.92F
OKEECHOBEE     MOCLDY    77  75  94 NE3       29.91S

$$
FLZ041-047-054-059-064-141-147-300000-
EAST CENTRAL FLORIDA

CITY           SKY/WX    TMP DP  RH WIND       PRES   REMARKS
DAYTONA BEACH  CLOUDY    82  73  74 E9G21     29.94F
DELAND         CLOUDY    81  75  83 SE9       29.94S
NEW SMYRNA BEA PTCLDY    81  75  83 SE16G23   29.95F
JFK SPACE CTR  CLOUDY    75  72  88 SE3       29.93F THUNDER
TITUSVILLE     MOCLDY    79  77  94 E12       29.95S
CAPE CANAVERAL TSTM      77  74  91 VRB2      29.93F FOG
PATRICK AFB    HVY RAIN  81  75  83 E16       29.94R
MELBOURNE      CLOUDY    82  75  79 SE8       29.92S
VERO BEACH     CLOUDY    80  76  87 SE7       29.91F
FT PIERCE      LGT RAIN  78  75  90 E8        29.90F
STUART         PTCLDY    84  75  74 SE12      29.91S

STATION/POSITION SKY/WX   TEMP    WIND        PRES    WAVE   SWELL
                          AIR SEA DIR/SP/G            HT/PER HT/PER
                          (F)     (DEG/KT/KT) (MB)    (FT/S) (FT/S)
28.5N   80.2W              83 83  110/ 14/ 17 1013.9R
TRIDENT PIER               83 86                N/A
28.4N   80.5W                 85                N/A     3/13   2/13
27.5N   80.2W                 84                N/A     3/13   2/13

$$
FLZ050-056-061-142-242-148-248-149-249-151-251-155-255-
160-260-300000-
WEST CENTRAL FLORIDA

CITY           SKY/WX    TMP DP  RH WIND       PRES   REMARKS
CRYSTAL RIVER  FAIR      77  73  88 E7        29.93F
INVERNESS      LGT RAIN  73  73 100 SE5       29.95F
BROOKSVILLE    CLOUDY    82  74  76 E7        29.94R
CLEARWATER AIR FAIR      79  75  89 E5        29.91S
ST PETE CLEARW PTSUNNY   81  76  84 E7        29.91R
TAMPA INTL     CLOUDY    83  76  79 VRB5      29.92R
TAMPA EXEC     MOSUNNY   84  77  79 E3        29.92R
PLANT CITY     CLOUDY    84  77  79 E10       29.94S
MACDILL AFB    CLOUDY    81  80  96 E8        29.91R
PETER O KNIGHT MOSUNNY   82  79  89 E6        29.92R
ST PETERSBURG  CLOUDY    82  75  79 E12       29.90R
SARASOTA       CLOUDY    81  73  76 E8        29.87S
VENICE         FAIR      77  77 100 SE5       29.88F

STATION/POSITION SKY/WX   TEMP    WIND        PRES    WAVE   SWELL
                          AIR SEA DIR/SP/G            HT/PER HT/PER
                          (F)     (DEG/KT/KT) (MB)    (FT/S) (FT/S)
27.3N   84.2W                 86                N/A     5/ 7
CLEARWATER BEACH           79 86                N/A
MIDDLE TAMPA BAY                  110/  8/  9 1012.5F
VENICE                     77 85  120/  4/  5 1011.5F

$$
FLZ066-069-070-075>078-162-262-165-265-300000-
SOUTHWEST FLORIDA AND KEYS

CITY           SKY/WX    TMP DP  RH WIND       PRES   REMARKS
PUNTA GORDA    LGT RAIN  77  75  93 E6        29.90F
FT MYERS       CLOUDY    80  75  84 E3        29.87F
SOUTHWEST INTL CLOUDY    81  75  82 E3        29.88S
NAPLES         CLOUDY    82  75  79 E9        29.86F
MARATHON       CLOUDY    83  76  79 VRB5      29.85R
KEY WEST NAS   MOCLDY    84  74  71 S10       29.84S
KEY WEST INTL  PTCLDY    84  75  74 S14       29.84S

STATION/POSITION SKY/WX   TEMP    WIND        PRES    WAVE   SWELL
                          AIR SEA DIR/SP/G            HT/PER HT/PER
                          (F)     (DEG/KT/KT) (MB)    (FT/S) (FT/S)
NAPLES                        87                N/A
26.0N   85.6W              85 86   80/ 19/ 23 1009.4F   5/ 6
DRY TORTUGAS               82     140/ 17/ 19 1009.8R
SAND KEY                   83     190/ 15/ 18 1010.5F
LONG KEY                   80 85   90/  8/  9 1011.1F
MOLASSES REEF              78 85  140/ 16     1011.7

$$
FLZ067-068-071>074-168-172>174-300000-
SOUTHEAST FLORIDA

CITY           SKY/WX    TMP DP  RH WIND       PRES   REMARKS
W PALM BEACH   CLOUDY    82  74  76 SE14      29.91S
BOCA RATON     PTCLDY    82  77  83 SE12      29.89F
FT LAUDER-EXEC CLOUDY    83  73  72 SE17G24   29.89S
FT LAUDERDALE  MOCLDY    82  72  71 SE23      29.88S
POMPANO BEACH  PTCLDY    83  74  74 SE17      29.89F
PEMBROKE PINES CLEAR     81  73  78 SE17        N/A
OPA LOCKA      LGT RAIN  80  74  81 SE15      29.90S
MIAMI          CLOUDY    80  75  84 SE8       29.89S
WEST KENDALL   LGT RAIN  76  74  93 SE3       29.89F
HOMESTEAD      DRIZZLE   79  75  89 E6        29.88S

STATION/POSITION SKY/WX   TEMP    WIND        PRES    WAVE   SWELL
                          AIR SEA DIR/SP/G            HT/PER HT/PER
                          (F)     (DEG/KT/KT) (MB)    (FT/S) (FT/S)
PORT EVERGLADES            83     130/ 10/ 17 1012.2F
VIRGINIA KEY               80 89                N/A
LAKE WORTH                 81 86                N/A
FOWEY ROCKS                80 85  100/ 18/ 19 1012.4R
SETTLEMENT POINT           82     150/ 15/ 18 1013.8S

$$





USA.gov is the U.S. government's official web portal to all federal, state and local government web resources and services.